Lid_Strength_Index
-1 -1 -2 -2 -2 -2 -2 -2 -2 -2 -2 -2 -2 -2 -3 -1 -1 -0 -1 -1 -2 -2 -2 -2 -2 -2 -2 -2 -2 -2 -2 -2 -2
-1 -1 -2 -2 -2 -2 -2 -2 -2 -2 -2 -2 -2 -2 -2 -1 -0 -0 -1 -1 -2 -2 -2 -2 -2 -2 -2 -2 -2 -2 -2 -2 -2
-1 -1 -2 -2 -2 -2 -2 -2 -2 -2 -2 -2 -2 -1 -2 -1 -0 -0 -1 -2 -2 -2 -2 -2 -2 -2 -2 -2 -2 -2 -2 -2 -2
-1 -1 -1 -1 -2 -2 -2 -2 -2 -2 -2 -2 -1 -2 -2 -1 -1 -1 -0 -2 -2 -2 -2 -2 -2 -2 -2 -2 -2 -2 -2 -2 -2
-1 -1 -1 -1 -1 -2 -2 -2 -2 -2 -2 -1 -2 -1 -2 -0 -0 -0 -1 -2 -2 -2 -2 -2 -2 -2 -2 -2 -2 -2 -2 -2 -2
2 -0 -1 -0 -0 -1 -1 -2 -2 -1 -1 -1 -1 -1 1 0 0 -0 -3 -2 -2 -2 -2 -2 -2 -2 -2 -2 -2 -2 -2 -2 -2
2 1 -0 0 0 0 0 -1 -1 -1 3 3 0 3 1 1 1 0 -2 -2 -2 -2 -2 -2 -1 -2 -1 -1 -1 -1 -1 -1 -1
5 5 5 4 2 4 3 3 3 3 3 3 3 3 2 2 3 0 -2 -1 -2 -2 -2 -1 -1 -1 -1 -1 -1 -1 -1 -1 -1
6 6 5 6 5 5 4 4 4 3 3 4 4 4 3 3 4 2 -1 -1 -1 -1 -1 -1 -1 -1 -1 -1 -0 -0 -0 -0 -1
7 6 6 6 5 5 4 4 4 4 3 3 4 4 4 5 4 4 0 -1 -0 -1 -1 -1 -1 -1 -1 -0 -0 0 0 -0 -0
7 7 7 7 6 5 4 4 4 4 3 3 3 4 4 4 5 4 3 0 0 0 -0 -0 -0 -1 -1 -0 -0 -0 -0 -0 -0
7 7 7 8 8 6 4 4 4 4 3 3 3 4 4 4 5 5 4 3 1 1 2 1 1 1 -0 -0 -0 0 0 0 0
8 8 8 8 8 7 6 5 4 4 3 4 4 4 4 5 5 6 5 5 4 4 3 2 2 1 1 1 1 1 1 1 1
8 8 8 8 8 8 7 7 6 5 5 4 4 4 5 5 4 6 7 6 6 6 3 3 3 3 2 2 1 1 1 1 1
8 8 8 8 8 9 8 9 8 7 6 4 4 4 5 5 5 6 7 6 6 7 7 6 5 3 3 3 2 2 2 1 1
8 8 9 8 8 9 8 9 9 8 7 7 6 6 5 5 4 6 8 7 7 7 7 7 7 7 4 5 4 3 3 3 2
8 8 8 9 9 9 9 9 10 10 9 9 9 10 8 6 5 5 7 8 7 7 7 8 8 8 8 7 5 5 5 4 4
7 8 9 9 9 9 10 9 10 11 10 10 10 12 12 10 8 7 7 8 8 8 8 8 8 9 9 8 8 6 6 5 4
6 7 8 9 8 9 10 9 10 10 11 11 9 11 11 12 12 8 8 8 8 9 9 10 10 10 10 8 7 7 7 6 5
6 7 8 9 8 10 10 10 10 11 10 11 11 12 11 12 12 13 10 9 9 9 10 11 11 11 11 11 10 8 7 6 6